Preview of NWS' New Version of Forecast
This preview is not operational and should not be used for support decisions.

Regional Weather Roundup (RWR)

Issued by National Weather Service (NWS)

                            
000
ASUS42 KTBW 212117
RWRFL 
FLORIDA REGIONAL WEATHER ROUNDUP
NATIONAL WEATHER SERVICE TAMPA BAY RUSKIN FL
500 PM EDT SAT SEP 21 2019

NOTE: "FAIR" INDICATES FEW OR NO CLOUDS BELOW 12,000 FEET WITH NO
SIGNIFICANT WEATHER AND/OR OBSTRUCTIONS TO VISIBILITY.

FLZ001>010-012>015-112-114-115-212200-
PANHANDLE FLORIDA
  
CITY           SKY/WX    TMP DP  RH WIND       PRES   REMARKS
PENSACOLA      FAIR      86  68  54 SE10      30.13F                  
PENSACOLA NAS  FAIR      86  68  54 SE14      30.12F                  
MILTON NAS     FAIR      91  60  35 VRB7      30.12F                  
CRESTVIEW      FAIR      90  60  36 VRB3      30.14S                  
DUKE FIELD     FAIR      91  56  30 E5        30.11F                  
VALPARAISO     PTSUNNY   89  64  43 SE9       30.11F                  
MARY ESTHER    MOSUNNY   87  65  48 SE9G21    30.11F                  
TRI COUNTY     FAIR      88  56  33 NE6       30.13                   
PANAMA CITY    FAIR      90  55  30 E9        30.11F                  
TYNDALL AFB    FAIR      88  60  37 E5        30.10F                  
APALACHICOLA   FAIR      87  61  41 E10G21    30.11F                  

STATION/POSITION SKY/WX   TEMP    WIND        PRES    WAVE   SWELL
                          AIR SEA DIR/SP/G            HT/PER HT/PER
                          (F)     (DEG/KT/KT) (MB)    (FT/S) (FT/S)
30.1N   87.6W              82 85  110/ 16/ 19 1020.2F   8/ 8   5/ 8
29.2N   88.2W              83      90/ 17/ 23 1019.7S   8/ 8   2/13
28.8N   86.0W                 85  100/ 17/ 23 1019.1F   6/ 7   3/21
PANAMA CITY BEAC           87 84  100/ 11/ 14 1020.3
TOWER C                    81      70/ 14/ 15 1020.0F
28.5N   84.5W              82      60/ 16/ 19 1019.5F   5/ 6

$$
FLZ011-016>038-118-127-128-134-139-239-212200-
NORTH FLORIDA
  
CITY           SKY/WX    TMP DP  RH WIND       PRES   REMARKS
MARIANNA       FAIR      89  56  32 SE9       30.12F                  
TALLAHASSEE    FAIR      88  61  40 E8        30.12F                  
PERRY          PTSUNNY   87  65  47 E8        30.13F                  
LIVE OAK       MOSUNNY   86  59  39 E8G15     30.13F                  
CROSS CITY       N/A     88  63  42 E8G18     30.12S                  
LAKE CITY      PTSUNNY   82  61  47 E9G21     30.15S                  
GAINESVILLE    PTSUNNY   85  64  49 E16G22    30.16F                  
WILLISTON      PTSUNNY   84  61  46 E8G18     30.13S                  
PALATKA        PTSUNNY   81  63  54 E13       30.15F                  
MAYPORT NAS    FAIR      84  63  49 E14       30.17F                  
JACKSONVILLE   PTSUNNY   84  65  52 NE17      30.17F                  
JAX NAS        PTSUNNY   85  64  49 E15       30.16F                  
JAX CECIL      PTSUNNY   86  66  51 E13G20    30.16F                  
FERNANDINA BEA PTSUNNY   82  66  57 E17       30.18F                  
ST AUGUSTINE   PTSUNNY   81 N/A N/A E16       30.17F                  
PALM COAST     MOSUNNY   82  64  54 E14G20    30.15F                  

STATION/POSITION SKY/WX   TEMP    WIND        PRES    WAVE   SWELL
                          AIR SEA DIR/SP/G            HT/PER HT/PER
                          (F)     (DEG/KT/KT) (MB)    (FT/S) (FT/S)
SHELL POINT      NOT AVBL
KEATON BEACH               85      70/ 10/ 13 1020.0F
CEDAR KEY                  83      70/ 13/ 16 1019.7F
FERNANDINA                 87 80   40/  3/ 11 1022.9F
30.7N   81.3W                 82                N/A     5/15   2/15
MAYPORT                    82 81   80/ 11/ 14 1022.3
31.4N   80.9W              80 81   90/ 12/ 14 1022.3F   4/15   3/15
ST AUGUSTINE               81 81   90/ 14/ 16 1021.6F

$$
FLZ040-043>046-052-053-057-058-063-144-212200-
INTERIOR CENTRAL FLORIDA
  
CITY           SKY/WX    TMP DP  RH WIND       PRES   REMARKS
OCALA          PTSUNNY   86  63  45 NE14G22   30.12F                  
LEESBURG       PTSUNNY   86  64  47 E15G21    30.13S                  
SANFORD        CLOUDY    82  63  52 E17       30.13S                  
ORLANDO EXEC   CLOUDY    83  64  52 E14G23    30.12F                  
ORLANDO INTL   PTSUNNY   82  66  58 E15       30.11F                  
KISSIMMEE      PTSUNNY   85  67  54 E17G23    30.11F                  
WINTER HAVEN   PTSUNNY   87  66  49 E18       30.10F                  
LAKELAND       MOSUNNY   84  64  51 E18       30.09F                  
BARTOW         PTSUNNY   86  68  54 NE14G23   30.08F                  
SEBRING        FAIR      85  71  62 E20G26    30.08S                  
OKEECHOBEE     PTSUNNY   81  68  65 E12G18    30.07F                  

$$
FLZ041-047-054-059-064-141-147-212200-
EAST CENTRAL FLORIDA
  
CITY           SKY/WX    TMP DP  RH WIND       PRES   REMARKS
ORMOND BEACH   CLOUDY    79  66  65 NE14      30.15F                  
DAYTONA BEACH  PTSUNNY   81  65  58 E15G24    30.15S                  
DELAND         CLOUDY    82  64  54 E14G20    30.14S                  
NEW SMYRNA BEA MOSUNNY   82  64  54 E14G23    30.15F                  
JFK SPACE CTR  FAIR      82  54  37 E12       30.12F                  
TITUSVILLE     PTSUNNY   86  68  54 E17       30.13F                  
CAPE CANAVERAL FAIR      83  71  67 E17G23    30.11S                  
PATRICK AFB    FAIR      83  71  66 NE16      30.11S                  
MELBOURNE      PTSUNNY   83  69  62 NE18G25   30.10F                  
VERO BEACH     PTSUNNY   84  69  60 E15G25    30.09F                  
FT PIERCE      CLOUDY    82  69  64 E13G23    30.08F                  
STUART         PTSUNNY   82  72  69 E22G29    30.09F                  

STATION/POSITION SKY/WX   TEMP    WIND        PRES    WAVE   SWELL
                          AIR SEA DIR/SP/G            HT/PER HT/PER
                          (F)     (DEG/KT/KT) (MB)    (FT/S) (FT/S)
28.5N   80.2W              81 83   60/ 17/ 23 1020.3S   9/15   7/15
28.9N   78.5W              79 80   60/ 19/ 23 1020.7F  12/15  11/15
TRIDENT PIER               84 82   50/ 12/ 17 1021.5
28.4N   80.5W                 81                N/A     5/15   2/15
27.5N   80.2W                 82                N/A     9/14   5/14

$$
FLZ050-056-061-142-242-148-248-149-249-151-251-155-255-
160-260-212200-
WEST CENTRAL FLORIDA
  
CITY           SKY/WX    TMP DP  RH WIND       PRES   REMARKS
CRYSTAL RIVER  PTSUNNY   86  63  45 E14       30.11S                  
INVERNESS      PTSUNNY   86  68  54 E7        30.11F                  
BROOKSVILLE    FAIR      87  61  41 E16G23    30.10S                  
CLEARWATER AIR FAIR      86  64  48 E12G21    30.06S                  
ST PETE CLEARW FAIR      87  67  51 E15G22    30.06F                  
TAMPA INTL     FAIR      87  65  47 E10G17    30.07F                  
TAMPA EXEC     FAIR      86  68  54 E14G21    30.08F                  
PLANT CITY     FAIR      88  70  55 NE15      30.10F                  
MACDILL AFB    FAIR      88  67  49 E17G23    30.06F                  
PETER O KNIGHT PTSUNNY   88  68  51 E14G25    30.07F                  
ST PETERSBURG  FAIR      85  70  60 E20       30.05F                  
SARASOTA       PTSUNNY   89  68  49 NE12      30.02F                  
VENICE         FAIR      91  68  46 E16G24    30.03F HX  95           

STATION/POSITION SKY/WX   TEMP    WIND        PRES    WAVE   SWELL
                          AIR SEA DIR/SP/G            HT/PER HT/PER
                          (F)     (DEG/KT/KT) (MB)    (FT/S) (FT/S)
27.3N   84.2W                 84                N/A     6/ 6
CLEARWATER BEACH           86 84   60/ 13/ 17 1018.3
MIDDLE TAMPA BAY           84      90/ 17/ 22 1018.2
VENICE                     88 84   90/ 13/ 16 1016.7F

$$
FLZ066-069-070-075>078-162-262-165-265-212200-
SOUTHWEST FLORIDA AND KEYS
  
CITY           SKY/WX    TMP DP  RH WIND       PRES   REMARKS
PUNTA GORDA    FAIR      89  69  51 NE21      30.04F                  
FT MYERS       FAIR      89  70  53 E13G25    30.01F                  
SOUTHWEST INTL FAIR      87  70  56 E20G31    30.02F                  
NAPLES         FAIR      88  72  58 NE21      29.99F                  
MARCO ISLAND   FAIR      86  72  62 NE14G21   30.01F                  
IMMOKALEE      PTSUNNY   86  72  62 NE17G24   30.00F                  
MARATHON       LGT RAIN  79  74  84 NE18G24   29.97R                  
KEY WEST NAS   PTSUNNY   82  74  76 NE17G28   29.98R                  
KEY WEST INTL  FAIR      81  75  82 NE12G24   29.97F                  

STATION/POSITION SKY/WX   TEMP    WIND        PRES    WAVE   SWELL
                          AIR SEA DIR/SP/G            HT/PER HT/PER
                          (F)     (DEG/KT/KT) (MB)    (FT/S) (FT/S)
NAPLES                     87 84   60/ 10/ 16 1016.1
26.0N   85.6W              83 85   70/ 16/ 19 1016.5F   8/ 7   5/ 8
DRY TORTUGAS               83      70/ 22/ 25 1015.0F
SAND KEY                   81      60/ 24/ 27 1012.9
SOMBRERO KEY               79      60/ 24/ 29 1014.8
LONG KEY                   80                 1013.4

$$
FLZ067-068-071>074-168-172>174-212200-
SOUTHEAST FLORIDA 
  
CITY           SKY/WX    TMP DP  RH WIND       PRES   REMARKS
W PALM BEACH   PTSUNNY   83  71  67 E17G26    30.05F                  
BOCA RATON     MOSUNNY   84  72  65 NE20G31   30.03F                  
FT LAUDER-EXEC PTSUNNY   83  71  67 NE16G30   30.01F                  
FT LAUDERDALE  PTSUNNY   84  73  69 E20G29    30.00F                  
POMPANO BEACH  PTSUNNY   84  71  65 NE21G28   30.02F                  
PEMBROKE PINES CLOUDY    84  72  67 NE22G38   30.02F                  
OPA LOCKA      CLOUDY    84  72  67 NE22G29   30.01F                  
MIAMI          LGT RAIN  83  72  69 NE15G29   30.00F                  
WEST KENDALL   LGT RAIN  79  76  90 NE18      30.00F                  
HOMESTEAD      CLOUDY    79  75  89 NE20G32   29.99R                  

STATION/POSITION SKY/WX   TEMP    WIND        PRES    WAVE   SWELL
                          AIR SEA DIR/SP/G            HT/PER HT/PER
                          (F)     (DEG/KT/KT) (MB)    (FT/S) (FT/S)
VIRGINIA KEY               81 84   30/ 17/ 24 1015.7
LAKE WORTH                 81 82   5